Regional Weather Roundup
Issued by NWS Bismarck, ND

Home | Current Version | Previous Version | Text Only | Print | Product List | Glossary On
Versions: 1 2 3 4 5 6 7 8 9 10 11 12 13 14 15 16 17 18 19 20 21 22 23 24 25 26 27 28 29 30 31 32 33 34 35 36 37 38 39 40 41 42 43 44 45 46 47 48 49 50
000
ASUS43 KBIS 070520
RWRBIS

NWR BROADCAST TEXT
NATIONAL WEATHER SERVICE BISMARCK ND
1100 PM CST FRI MAR 06 2015

NOTE: "FAIR" INDICATES FEW OR NO CLOUDS BELOW 12,000 FEET WITH NO
SIGNIFICANT WEATHER AND/OR OBSTRUCTIONS TO VISIBILITY.


CITY           SKY/WX    TMP DP  RH WIND       PRES   REMARKS
WILLISTON      CLOUDY    37  30  75 NW20G26   30.10R
MINOT          MOCLDY    36  30  79 W22G31    29.98R
MINOT AFB      CLOUDY    35  35  99 NW21      29.98R
BISMARCK       CLEAR     40  28  62 NW17G29   30.03R
DICKINSON      CLEAR     35  24  64 NW13      30.05R
GARRISON         N/A     37  31  78 NW23      30.00R
HETTINGER ARPT PTCLDY    30  22  72 W6        30.09S
JAMESTOWN      MOCLDY    37  29  72 W17       29.91R
BEACH          FAIR      36  25  64 NW13      30.14R
CARRINGTON     CLOUDY    36  36 100 MISG      29.93R
CROSBY         CLOUDY    34  34 100 NW18G24   30.08R
HARVEY         CLOUDY    36  32  87 NW21G29   29.95R
HAZEN          MOCLDY    36  28  75 NW10G20   30.05R
LINTON         FAIR      36  32  87 W8        30.02R
MANDAN         FAIR      37  28  70 NW17G29   30.03R
OAKES            N/A     37  32  81 W15G21    29.95S
RUGBY          FAIR      32  32 100 NW16      29.94R
TIOGA          CLOUDY    34  34 100 NW18G24   30.08R
WATFORD CITY   CLOUDY    36  30  80 NW21G28   30.07R
$$

CITY           SKY/WX    TMP DP  RH WIND       PRES   REMARKS
GRAND FORKS    CLOUDY    37  27  67 NW14      29.84S
GRAND FORKS AF CLOUDY    38  29  71 NW13G21   29.85R
DEVILS LAKE    CLEAR     32  28  86 NW13      29.92R
FARGO          CLOUDY    36  25  64 SW14      29.88F
CANDO          FAIR      30  27  86 NW10      29.91R
CAVALIER       FAIR      32  27  80 NW13      29.86R
GWINNER        CLEAR     36  30  80 W15       29.94S
ROLLA          FAIR      32  28  86 NW23G29   29.91R WCI  19
WALHALLA         N/A     32  32 100 NW13G20   29.88R
$$

CITY           SKY/WX    TMP DP  RH WIND       PRES   REMARKS
ABERDEEN       CLOUDY    31  26  82 S6        30.02S
MOBRIDGE       MOCLDY    41  30  65 W5        30.02S
BUFFALO          N/A     33  22  63 SW7       30.08R
RAPID CITY     MOCLDY    35  22  58 NW8       30.13R
GLASGOW        MOCLDY    33  25  72 N8        30.17R
SIDNEY         PTCLDY    37  28  70 W12       30.15S
WOLF POINT     PTCLDY    36  28  73 W8        30.17R
GLENDIVE       CLEAR     36  23  60 NW16      30.15R
MILES CITY       N/A    N/A N/A N/A MISG      30.18R
BAKER          CLOUDY    38  26  62 W12       30.15R
$$

CITY           SKY/WX    TMP DP  RH WIND       PRES   REMARKS
BILLINGS       MOCLDY    43  19  38 NW13      30.22R
GREAT FALLS    MOCLDY    35  22  58 SW9       30.21R
REGINA         CLEAR     28  27  93 NW9       30.09R WCI  20
ESTEVAN        CLOUDY    34  30  86 NW14      30.05R
$$




USA.gov is the U.S. government's official web portal to all federal, state and local government web resources and services.